This demonstration page uses our WeatherBlox Daily Observations layout. Learn more.

Left ArrowRight Arrow

Hourly Observations for September 4, 2019

Temp ( °F °C ) Dew Point ( °F °C ) Humidity (%) Winds ( mph kmh ) Pressure ( in mb ) Visibility ( mi km ) Precip ( " mm )
12:53 am 00:53 Clear 73 22.8 66 18.9 79 79 Calm 29.96 1015 10 16 0.00 0.00
1:53 am 01:53 Clear 70 21.1 66 18.9 87 87 Calm 29.96 1014 10 16 0.00 0.00
2:53 am 02:53 Clear 70 21.1 66 18.9 87 87 Calm 29.96 1015 10 16 0.00 0.00
3:53 am 03:53 Clear 70 21.1 66 18.9 87 87 Calm 29.95 1014 10 16 0.00 0.00
4:53 am 04:53 Clear 69 20.6 66 18.9 90 90 Calm 29.95 1014 10 16 0.00 0.00
5:53 am 05:53 Clear 68 20 65 18.3 90 90 Calm 29.97 1015 10 16 0.00 0.00
6:53 am 06:53 Clear 67 19.4 65 18.3 93 93 Calm 29.98 1015 10 16 0.00 0.00
7:53 am 07:53 Sunny 70 21.1 66 18.9 87 87 Calm 30.01 1016 10 16 0.00 0.00
9:53 am 09:53 Sunny 82 27.8 68 20 63 63 NE 6 9 30.01 1016 10 16 0.00 0.00
10:53 am 10:53 Sunny 87 30.6 67 19.4 51 51 NNE 7 11 30.01 1016 10 16 0.00 0.00
11:53 am 11:53 Sunny 90 32.2 66 18.9 45 45 NNW 9 15 30.00 1016 10 16 0.00 0.00
12:53 pm 12:53 Sunny 92 33.3 64 17.8 40 40 NE 10 17 29.98 1015 10 16 0.00 0.00
1:53 pm 13:53 Sunny 94 34.4 64 17.8 37 37 NNW 13 20 29.97 1015 10 16 0.00 0.00
2:53 pm 14:53 Mostly Sunny 94 34.4 63 17.2 36 36 NW 6 9 29.94 1014 10 16 0.00 0.00
3:53 pm 15:53 Sunny 96 35.6 63 17.2 34 34 NNE 7 11 29.92 1013 10 16 0.00 0.00
4:53 pm 16:53 Sunny 96 35.6 63 17.2 34 34 NW 10 17 29.91 1013 10 16 0.00 0.00
5:53 pm 17:53 Sunny 96 35.6 62 16.7 32 32 NNW 13 20 29.90 1013 10 16 0.00 0.00
6:53 pm 18:53 Sunny 94 34.4 62 16.7 35 35 N 9 15 29.90 1013 10 16 0.00 0.00
7:53 pm 19:53 Sunny 90 32.2 64 17.8 42 42 NNW 5 7 29.89 1012 10 16 0.00 0.00
8:53 pm 20:53 Clear 85 29.4 64 17.8 50 50 Calm 29.90 1013 10 16 0.00 0.00
9:53 pm 21:53 Clear 83 28.3 65 18.3 55 55 Calm 29.90 1013 10 16 0.00 0.00
10:53 pm 22:53 Clear 79 26.1 66 18.9 65 65 Calm 29.90 1013 10 16 0.00 0.00
11:53 pm 23:53 Clear 79 26.1 62 16.7 56 56 Calm 29.89 1012 10 16 0.00 0.00

Powered by AerisWeather